• Processing (Info)

  • MPEC 2006-A25 : 2006 AV2

    The following Minor Planet Electronic Circular may be linked-to from your own Web pages, but must not otherwise be redistributed electronically.

    A form allowing access to any MPEC is at the bottom of this page.


    Read MPEC 2006-A24 Read MPEC 2006-A26


    M.P.E.C. 2006-A25                                Issued 2006 Jan. 6, 21:41 UT
    
         The Minor Planet Electronic Circulars contain information on unusual
             minor planets and routine data on comets.  They are published
       on behalf of Commission 20 of the International Astronomical Union by the
              Minor Planet Center, Smithsonian Astrophysical Observatory,
                              Cambridge, MA 02138, U.S.A.
    
                      Supported in part by the Brinson Foundation
                      Supported in part by the TABASGO Foundation
                 Prepared using the Tamkin Foundation Computer Network
    
                                  MPC@CFA.HARVARD.EDU
              URL http://cfa-www.harvard.edu/iau/mpc.html  ISSN 1523-6714
    
                                       2006 AV2
    
    Observations:
         K06A02V* C2006 01 05.27719 08 27 16.45 +25 50 41.5          18.7 R EA025699
         K06A02V  C2006 01 05.30094 08 27 17.45 +25 50 13.0                 EA025699
         K06A02V  C2006 01 05.32969 08 27 18.57 +25 49 37.8          18.5 V EA025703
         K06A02V  C2006 01 05.33669 08 27 18.94 +25 49 29.6          18.5 V EA025703
         K06A02V  C2006 01 05.34371 08 27 19.34 +25 49 21.5          18.5 V EA025703
         K06A02V  C2006 01 05.34849 08 27 19.44 +25 49 15.9                 EA025699
         K06A02V  C2006 01 05.35074 08 27 19.57 +25 49 14.5          18.5 V EA025703
         K06A02V  C2006 01 05.94701 08 27 51.49 +25 36 54.0                 EA025595
         K06A02V  C2006 01 05.96089 08 27 52.09 +25 36 36.4                 EA025595
         K06A02V  C2006 01 05.97478 08 27 52.61 +25 36 19.9          19.2 V EA025595
         K06A02V  C2006 01 05.98867 08 27 53.28 +25 36 03.2                 EA025595
         K06A02V  C2006 01 06.14263 08 28 02.36 +25 32 49.1          19.3 R EA025734
         K06A02V  C2006 01 06.14854 08 28 02.69 +25 32 42.2          19.2 R EA025734
         K06A02V  C2006 01 06.15148 08 28 02.81 +25 32 38.7          19.3 R EA025734
         K06A02V 5C2006 01 06.24433 08 28 07.59 +25 30 46.1          19.2 R EA025673
         K06A02V 5C2006 01 06.25671 08 28 08.10 +25 30 32.0                 EA025673
         K06A02V 5C2006 01 06.26030 08 28 08.23 +25 30 27.4                 EA025673
         K06A02V 5C2006 01 06.26366 08 28 08.43 +25 30 23.4                 EA025673
         K06A02V  C2006 01 06.27192 08 28 08.33 +25 30 12.7          18.9   EA025H05
         K06A02V  C2006 01 06.28478 08 28 08.88 +25 29 56.7          18.9   EA025H05
         K06A02V  C2006 01 06.29638 08 28 09.40 +25 29 42.3          19.2   EA025H05
         K06A02V  C2006 01 06.30214 08 28 09.78 +25 29 38.6          19.2 R EA025854
         K06A02V  C2006 01 06.30599 08 28 10.22 +25 29 34.5          19.2 R EA025854
         K06A02V  C2006 01 06.30982 08 28 10.31 +25 29 29.8          19.2 R EA025854
         K06A02V  C2006 01 06.36117 08 28 12.25 +25 28 25.4          19.3 V EA025G96
         K06A02V  C2006 01 06.36785 08 28 12.50 +25 28 16.8          19.2 V EA025G96
         K06A02V  C2006 01 06.37449 08 28 12.79 +25 28 08.6          19.2 V EA025G96
         K06A02V  C2006 01 06.44810 08 28 15.85 +25 26 33.9          19.2 R EA025699
         K06A02V  C2006 01 06.45356 08 28 16.09 +25 26 27.9                 EA025699
         K06A02V  C2006 01 06.45902 08 28 16.27 +25 26 19.7                 EA025699
         K06A02V  C2006 01 06.46450 08 28 16.53 +25 26 13.2                 EA025699
         K06A02V  C2006 01 06.87764 08 28 39.68 +25 17 25.0          18.7 R EA025143
         K06A02V  C2006 01 06.88177 08 28 39.88 +25 17 20.4          19.2 R EA025143
         K06A02V  C2006 01 06.88590 08 28 40.05 +25 17 15.2          19.2 R EA025143
    
    Observer details:
    143 Gnosca.  Observer S. Sposetti.  0.40-m f/4 reflector + CCD.
    595 Farra d'Isonzo.  Observers G. Lombardi, E. Pettarin, F. Piani.  0.40-m
        f/4.5 reflector + CCD.
    673 Table Mountain Observatory, Wrightwood.  Observer J. Young.  0.6-m f/16
        Cassegrain + CCD.
    699 Lowell Observatory-LONEOS.  Observers B. A. Skiff, M. E. Van Ness.  0.59-m
        LONEOS Schmidt + CCD.
    703 Catalina Sky Survey.  Observer R. Hill.  Measurers E. C. Beshore,
        E. J. Christensen, G. J. Garradd, A. D. Grauer, R. E. Hill, R. A. Kowalski,
        S. M. Larson, R. H. McNaught.  0.68-m Schmidt + CCD.
    734 Farpoint Observatory.  Observer D. Tibbets.  0.7-m reflector + CCD.
    854 Sabino Canyon Observatory, Tucson.  Observer J. E. McGaha.  0.36-m f/10.0
        Schmidt-Cassegrain + CCD.
    G96 Mt. Lemmon Survey.  Observer E. J. Christensen.  Measurers E. C. Beshore,
        E. J. Christensen, G. J. Garradd, A. D. Grauer, R. E. Hill, R. A. Kowalski,
        S. M. Larson, R. H. McNaught.  1.5-m reflector + CCD.
    H05 Edmund Kline Observatory, Deer Trail.  Observer J. Gafford.  0.46-m f/4.5
        reflector + CCD.
    
    Orbital elements:
    2006 AV2                                                 Earth MOID = 0.2743 AU
    Epoch 2006 Jan. 5.0 TT = JDT 2453740.5                  MPC
    M 353.61396              (2000.0)            P               Q
    n   0.26397695     Peri.  184.62793     -0.62876662     -0.77279697
    a   2.4067190      Node   304.35812     +0.71673951     -0.53297345
    e   0.4769342      Incl.    5.99646     +0.30155763     -0.34456369
    P   3.73           H   20.2           G   0.15
    From 33 observations 2006 Jan. 5-6.
    
    Ephemeris:
    2006 AV2                 a,e,i = 2.41, 0.48, 6                   q = 1.2589
    Date    TT    R. A. (2000) Decl.     Delta      r     Elong.  Phase     V
    2006 01 05    08 27.01   +25 56.4    0.315    1.284   160.5    14.8    19.1
    2006 01 15    08 34.58   +22 11.2    0.289    1.268   168.7     8.7    18.6
    2006 01 25    08 39.96   +17 50.8    0.275    1.260   177.0     2.3    18.2
    2006 02 04    08 44.60   +13 22.8    0.276    1.260   173.3     5.3    18.3
    2006 02 14    08 50.25   +09 17.7    0.290    1.270   165.0    11.6    18.7
    2006 02 24    08 57.94   +05 56.3    0.317    1.288   157.4    17.2    19.2
    2006 03 06    09 08.13   +03 23.4    0.356    1.314   150.7    21.7    19.6
    2006 03 16    09 20.79   +01 30.7    0.407    1.347   144.6    25.3    20.1
    2006 03 26    09 35.40   +00 06.4    0.469    1.386   139.1    28.1    20.5
    2006 04 05    09 51.51   -01 01.1    0.542    1.431   133.9    30.2    21.0
    2006 04 15    10 08.68   -02 01.3    0.627    1.479   128.9    31.8    21.4
    2006 04 25    10 26.47   -02 59.6    0.722    1.532   124.1    33.0    21.8
    
    Gareth V. Williams           (C) Copyright 2006 MPC           M.P.E.C. 2006-A25
    

    Read MPEC 2006-A24 Read MPEC 2006-A26


    MPEC number:

    Enter an MPEC number in one of the following forms:

    • 1997-B01 (the full form)
    • J97B01 (the packed version of the full form)
    • B01 (the abbreviated form)